When you browse on this site, cookies collect data to enhance your experience and personalize the content and advertising you see.
Visit our Privacy Policy to learn more. By continuing to use the site, you agree to this use of cookies and data.
  • In Czech Republic
  • List of Countries
  • For 7 days
  • Water Temperature
  • Weather Map
  • Weather Widgets
  • user-avatar
    Login

    Hourly Weather Korçe

    Today, 6 December, Friday

    Time Temperature Precipitation Wind Pressure Humidity
    00:00 +3°C° 0 mm 0 mps 671 mmHg 85%
    01:00 +3°C° 0 mm 0 mps 671 mmHg 86%
    02:00 +3°C° 0 mm 0 mps 671 mmHg 86%
    03:00 +4°C° 0 mm 0 mps 671 mmHg 86%
    04:00 +5°C° 0 mm 1 mps 671 mmHg 86%
    05:00 +4°C° 0 mm 0 mps 671 mmHg 87%
    06:00 +4°C° 0 mm 0 mps 671 mmHg 87%
    07:00 +4°C° 0 mm 0 mps 671 mmHg 87%
    08:00 +6°C° 0 mm 0 mps 672 mmHg 83%
    09:00 +9°C° 0 mm 1 mps 672 mmHg 80%
    10:00 +10°C° 0 mm 1 mps 673 mmHg 76%
    11:00 +11°C° 0 mm 1 mps 672 mmHg 76%
    12:00 +11°C° 0 mm 1 mps 672 mmHg 76%
    13:00 +12°C° 0 mm 1 mps 672 mmHg 76%
    14:00 +11°C° 0 mm 1 mps 671 mmHg 81%
    15:00 +10°C° 0 mm 1 mps 671 mmHg 86%
    16:00 +9°C° 0 mm 1 mps 670 mmHg 91%
    17:00 +9°C° 0 mm 1 mps 670 mmHg 92%
    18:00 +8°C° 0 mm 1 mps 670 mmHg 93%
    19:00 +8°C° 0 mm 1 mps 670 mmHg 94%
    20:00 +8°C° 0.5 mm 1 mps 670 mmHg 95%
    21:00 +8°C° 0.5 mm 1 mps 670 mmHg 96%
    22:00 +8°C° 0.5 mm 1 mps 669 mmHg 97%
    23:00 +8°C° 0.9 mm 1 mps 669 mmHg 97%

    Tomorrow, 7 December, Saturday

    Time Temperature Precipitation Wind Pressure Humidity
    00:00 +8°C° 0.9 mm 1 mps 669 mmHg 97%
    01:00 +8°C° 0.9 mm 1 mps 669 mmHg 97%
    02:00 +7°C° 0.6 mm 2 mps 668 mmHg 97%
    03:00 +7°C° 0.6 mm 2 mps 668 mmHg 97%
    04:00 +7°C° 0.6 mm 2 mps 667 mmHg 97%
    05:00 +7°C° 0.7 mm 2 mps 667 mmHg 97%
    06:00 +7°C° 0.7 mm 2 mps 667 mmHg 97%
    07:00 +7°C° 0.7 mm 2 mps 667 mmHg 97%
    08:00 +8°C° 0.4 mm 2 mps 667 mmHg 95%
    09:00 +8°C° 0.4 mm 2 mps 667 mmHg 93%
    10:00 +9°C° 0.4 mm 2 mps 668 mmHg 90%
    11:00 +9°C° 0.6 mm 2 mps 667 mmHg 88%
    12:00 +9°C° 0.6 mm 2 mps 667 mmHg 86%
    13:00 +9°C° 0.6 mm 2 mps 667 mmHg 83%
    14:00 +8°C° 0.1 mm 2 mps 666 mmHg 85%
    15:00 +8°C° 0.1 mm 2 mps 666 mmHg 86%
    16:00 +8°C° 0.1 mm 1 mps 666 mmHg 87%
    17:00 +7°C° 0 mm 1 mps 666 mmHg 89%
    18:00 +7°C° 0 mm 1 mps 666 mmHg 91%
    19:00 +6°C° 0 mm 1 mps 666 mmHg 93%
    20:00 +6°C° 0 mm 1 mps 666 mmHg 93%
    21:00 +6°C° 0 mm 1 mps 666 mmHg 93%
    22:00 +4°C° 0 mm 0 mps 666 mmHg 93%
    23:00 +4°C° 0 mm 0 mps 666 mmHg 93%

    Day after tomorrow, 8 December, Sunday

    Time Temperature Precipitation Wind Pressure Humidity
    00:00 +4°C° 0 mm 0 mps 666 mmHg 93%
    01:00 +5°C° 0 mm 1 mps 666 mmHg 92%
    02:00 +5°C° 0 mm 1 mps 665 mmHg 92%
    03:00 +5°C° 0 mm 1 mps 665 mmHg 92%
    04:00 +5°C° 0 mm 1 mps 665 mmHg 93%
    05:00 +5°C° 0 mm 1 mps 665 mmHg 93%
    06:00 +5°C° 0 mm 1 mps 665 mmHg 93%
    07:00 +5°C° 0 mm 1 mps 665 mmHg 93%
    08:00 +6°C° 0 mm 1 mps 666 mmHg 88%
    09:00 +8°C° 0 mm 1 mps 667 mmHg 83%
    10:00 +9°C° 0 mm 1 mps 667 mmHg 78%
    11:00 +8°C° 0 mm 2 mps 667 mmHg 76%
    12:00 +9°C° 0 mm 2 mps 667 mmHg 73%
    13:00 +9°C° 0 mm 2 mps 666 mmHg 70%
    14:00 +8°C° 0 mm 2 mps 666 mmHg 75%
    15:00 +7°C° 0 mm 2 mps 666 mmHg 80%
    16:00 +6°C° 0 mm 2 mps 666 mmHg 85%
    17:00 +7°C° 0 mm 1 mps 666 mmHg 87%
    18:00 +6°C° 0 mm 1 mps 666 mmHg 90%
    19:00 +5°C° 0 mm 1 mps 666 mmHg 93%
    20:00 +5°C° 0 mm 1 mps 665 mmHg 92%
    21:00 +5°C° 0 mm 1 mps 665 mmHg 91%
    22:00 +4°C° 0 mm 1 mps 665 mmHg 91%
    23:00 +3°C° 0 mm 0 mps 665 mmHg 89%

    9 December, Monday

    Time Temperature Precipitation Wind Pressure Humidity
    00:00 +3°C° 0 mm 0 mps 665 mmHg 87%
    01:00 +3°C° 0 mm 0 mps 664 mmHg 86%
    02:00 +3°C° 0 mm 0 mps 664 mmHg 85%
    03:00 +3°C° 0 mm 0 mps 664 mmHg 85%
    04:00 +2°C° 0 mm 0 mps 664 mmHg 85%
    05:00 +3°C° 0 mm 1 mps 664 mmHg 85%
    06:00 +3°C° 0 mm 1 mps 663 mmHg 85%
    07:00 +3°C° 0 mm 1 mps 663 mmHg 86%
    08:00 +5°C° 0 mm 1 mps 664 mmHg 81%
    09:00 +6°C° 0 mm 1 mps 664 mmHg 76%
    10:00 +8°C° 0 mm 1 mps 664 mmHg 71%
    11:00 +7°C° 0 mm 2 mps 664 mmHg 70%
    12:00 +8°C° 0 mm 2 mps 664 mmHg 69%
    13:00 +8°C° 0 mm 2 mps 663 mmHg 67%
    14:00 +7°C° 0 mm 2 mps 663 mmHg 73%
    15:00 +6°C° 0 mm 2 mps 662 mmHg 78%
    16:00 +6°C° 0 mm 2 mps 661 mmHg 84%
    17:00 +5°C° 0 mm 2 mps 661 mmHg 87%
    18:00 +5°C° 0 mm 2 mps 661 mmHg 89%
    19:00 +5°C° 0 mm 2 mps 661 mmHg 92%
    20:00 +5°C° 0 mm 2 mps 661 mmHg 93%
    21:00 +5°C° 0 mm 2 mps 660 mmHg 95%
    22:00 +4°C° 0 mm 3 mps 660 mmHg 96%
    23:00 +5°C° 0.2 mm 2 mps 660 mmHg 96%

    10 December, Tuesday

    Time Temperature Precipitation Wind Pressure Humidity
    00:00 +5°C° 0.2 mm 2 mps 660 mmHg 96%
    01:00 +5°C° 0.2 mm 2 mps 659 mmHg 97%
    02:00 +5°C° 0.4 mm 2 mps 659 mmHg 96%
    03:00 +5°C° 0.4 mm 2 mps 659 mmHg 95%
    04:00 +4°C° 0.4 mm 2 mps 659 mmHg 95%
    05:00 +4°C° 0.2 mm 2 mps 659 mmHg 94%
    06:00 +3°C° 0.2 mm 2 mps 659 mmHg 93%
    07:00 +3°C° 0.2 mm 2 mps 659 mmHg 92%
    08:00 +4°C° 0.2 mm 2 mps 659 mmHg 89%
    09:00 +5°C° 0.2 mm 2 mps 659 mmHg 85%
    10:00 +5°C° 0.2 mm 2 mps 660 mmHg 82%
    11:00 +6°C° 0.6 mm 2 mps 660 mmHg 82%
    12:00 +6°C° 0.6 mm 2 mps 659 mmHg 82%
    13:00 +6°C° 0.6 mm 2 mps 659 mmHg 82%
    14:00 +5°C° 0.5 mm 2 mps 659 mmHg 85%
    15:00 +6°C° 0.5 mm 1 mps 659 mmHg 88%
    16:00 +5°C° 0.5 mm 1 mps 659 mmHg 91%
    17:00 +5°C° 0.1 mm 1 mps 659 mmHg 91%
    18:00 +4°C° 0.1 mm 1 mps 660 mmHg 91%
    19:00 +4°C° 0.1 mm 1 mps 660 mmHg 92%
    20:00 +4°C° 0 mm 1 mps 660 mmHg 90%
    21:00 +3°C° 0 mm 1 mps 661 mmHg 89%
    22:00 +3°C° 0 mm 1 mps 661 mmHg 87%
    23:00 +3°C° 0 mm 1 mps 661 mmHg 87%

    11 December, Wednesday

    Time Temperature Precipitation Wind Pressure Humidity
    00:00 +2°C° 0 mm 2 mps 661 mmHg 86%
    01:00 +2°C° 0 mm 2 mps 661 mmHg 85%
    02:00 +1°C° 0 mm 2 mps 661 mmHg 85%
    03:00 +1°C° 0 mm 2 mps 662 mmHg 84%
    04:00 +1°C° 0 mm 2 mps 662 mmHg 84%
    05:00 +1°C° 0 mm 2 mps 662 mmHg 84%
    06:00 +1°C° 0 mm 2 mps 663 mmHg 84%
    07:00 -1°C° 0 mm 2 mps 663 mmHg 84%
    08:00 +2°C° 0 mm 2 mps 664 mmHg 77%
    09:00 +3°C° 0 mm 2 mps 665 mmHg 71%
    10:00 +4°C° 0 mm 2 mps 665 mmHg 65%
    11:00 +4°C° 0 mm 2 mps 665 mmHg 63%
    12:00 +5°C° 0 mm 2 mps 665 mmHg 60%
    13:00 +6°C° 0 mm 2 mps 665 mmHg 58%
    14:00 +5°C° 0 mm 2 mps 665 mmHg 62%
    15:00 +4°C° 0 mm 2 mps 665 mmHg 66%
    16:00 +4°C° 0 mm 1 mps 664 mmHg 70%
    17:00 +3°C° 0 mm 1 mps 664 mmHg 72%
    18:00 +2°C° 0 mm 1 mps 664 mmHg 74%
    19:00 +1°C° 0 mm 2 mps 664 mmHg 77%
    20:00 -1°C° 0 mm 2 mps 665 mmHg 78%
    21:00 -1°C° 0 mm 2 mps 665 mmHg 79%
    22:00 -1°C° 0 mm 2 mps 665 mmHg 81%
    23:00 +1°C° 0 mm 1 mps 664 mmHg 81%
    Show more